User: anonymous
Location: Caltech
(34.1382°N, 118.1253°W)
Time: 20:28:54
(UTC-07:00)
Language:

SEDSat Delta rocket - Orbit

View from above orbital plane
View from above orbital plane
View from above satellite
View from above satellite

Ground track
Ground track

The orbit data is extracted from the following two-line orbital elements,

1 25510U 98061C   14259.83204972  .00000688  00000-0  11052-3 0  9537
2 25510 031.4356 136.9387 0333109 180.2462 258.5430 14.35868278832761
Epoch (UTC): 16 September 2014 19:58:09
Eccentricity: 0.0333109
inclination: 31.4356°
perigee height: 534 km
apogee height: 1010 km
right ascension of ascending node: 136.9387°
argument of perigee: 180.2462°
revolutions per day: 14.35868278
mean anomaly at epoch: 258.5430°
orbit number at epoch: 83276

The dashed part of the orbit path shows where the satellite is in the earth's shadow,  

DLR